Eveleth, MN

6:31 PM CST on November 11, 2019 (GMT -0600)
Eveleth-Virginia Municipal

Weather History for KEVM - October, 2019

Change the Weather History Date:

Sunday, October 20, 2019

  Actual Average Record
Temperature  
Mean Temperature 42 °F -  
Max Temperature 58 °F 48 °F 75 °F (2017)
Min Temperature 26 °F 30 °F 18 °F (1991)
Degree Days  
Heating Degree Days 23    
Moisture  
Dew Point 35 °F    
Average Humidity 73    
Maximum Humidity 100    
Minimum Humidity 42    
Precipitation  
Precipitation 0.00 in - - ()
Sea Level Pressure  
Sea Level Pressure 29.83 in    
Wind  
Wind Speed 1 mph (South)    
Max Wind Speed 8 mph    
Max Gust Speed -    
Visibility 10 miles    
Events      
Averages and records for this station are not official NWS values.
T = Trace of Precipitation, MM = Missing Value Source: NWS Daily Summary

Daily Weather History Graph

Daily Weather History Graph

Search for Another Location

Airport or City:

Astronomy

Oct. 20, 2019 Rise Set
Actual Time 7:35 AM CDT 6:13 PM CDT
Civil Twilight 7:04 AM CDT 6:44 PM CDT
Nautical Twilight 6:28 AM CDT 7:20 PM CDT
Astronomical Twilight 5:53 AM CDT 7:55 PM CDT
Moon 11:06 PM CDT (10/20) 2:21 PM CDT (10/20)
Length of Visible Light 11h 40m
Length of Day
10h 37m
Waning Gibbous, 59% of the Moon is Illuminated
Oct 20
Waning Gibbous
Oct 21
Last Quarter
Oct 27
New
Nov 4
First Quarter
Nov 12
Full

Hourly Weather History & Observations

Time (CDT) Temp. Windchill Dew Point Humidity Pressure Visibility Wind Dir Wind Speed Gust Speed Precip Events Conditions
12:07 AM 33.8 °F - 30.2 °F 87% 29.69 in 10.0 mi Calm Calm - N/A   Clear
12:27 AM 32.0 °F - 32.0 °F 100% 29.69 in 10.0 mi Calm Calm - N/A   Clear
12:47 AM 32.0 °F - 30.2 °F 93% 29.69 in 10.0 mi Calm Calm - N/A   Clear
1:06 AM 32.0 °F - 30.2 °F 93% 29.69 in 10.0 mi Calm Calm - N/A   Clear
1:28 AM 32.0 °F - 30.2 °F 93% 29.70 in 10.0 mi Calm Calm - N/A   Clear
1:47 AM 30.2 °F - 28.4 °F 93% 29.71 in 10.0 mi Calm Calm - N/A   Clear
2:08 AM 30.2 °F - 30.2 °F 100% 29.71 in 10.0 mi Calm Calm - N/A   Clear
2:28 AM 30.2 °F - 30.2 °F 100% 29.71 in 10.0 mi Calm Calm - N/A   Clear
2:48 AM 30.2 °F - 28.4 °F 93% 29.72 in 10.0 mi Calm Calm - N/A   Clear
3:06 AM 30.2 °F - 28.4 °F 93% 29.72 in 10.0 mi Calm Calm - N/A   Clear
3:28 AM 28.4 °F - 28.4 °F 100% 29.73 in 10.0 mi Calm Calm - N/A   Clear
3:46 AM 28.4 °F - 28.4 °F 100% 29.73 in 10.0 mi Calm Calm - N/A   Clear
4:07 AM 28.4 °F - 28.4 °F 100% 29.73 in 10.0 mi Calm Calm - N/A   Clear
4:26 AM 28.4 °F - 28.4 °F 100% 29.74 in 10.0 mi Calm Calm - N/A   Clear
5:06 AM 28.4 °F - 28.4 °F 100% 29.75 in 10.0 mi Calm Calm - N/A   Clear
5:27 AM 28.4 °F - 28.4 °F 100% 29.76 in 10.0 mi Calm Calm - N/A   Clear
5:46 AM 28.4 °F - 26.6 °F 93% 29.77 in 10.0 mi Calm Calm - N/A   Clear
6:07 AM 28.4 °F - 26.6 °F 93% 29.78 in 10.0 mi Calm Calm - N/A   Clear
6:26 AM 26.6 °F - 26.6 °F 100% 29.78 in 10.0 mi Calm Calm - N/A   Clear
6:47 AM 26.6 °F - 24.8 °F 93% 29.79 in 10.0 mi Calm Calm - N/A   Clear
7:07 AM 28.4 °F - 26.6 °F 93% 29.79 in 10.0 mi Calm Calm - N/A   Clear
7:27 AM 28.4 °F - 26.6 °F 93% 29.80 in 10.0 mi Calm Calm - N/A   Clear
7:47 AM 26.6 °F - 26.6 °F 100% 29.80 in 10.0 mi Calm Calm - N/A   Clear
8:07 AM 26.6 °F - 26.6 °F 100% 29.81 in 10.0 mi Calm Calm - N/A   Clear
8:27 AM 28.4 °F - 26.6 °F 93% 29.83 in 10.0 mi Calm Calm - N/A   Clear
8:47 AM 32.0 °F 28.7 °F 30.2 °F 93% 29.83 in 10.0 mi ENE 3.5 mph - N/A   Clear
9:08 AM 33.8 °F - 32.0 °F 93% 29.83 in 10.0 mi Calm Calm - N/A   Clear
9:12 AM 34.9 °F - 33.1 °F 93% 29.83 in 10.0 mi Calm Calm - N/A   Clear
9:15 AM 34.9 °F - 33.3 °F 94% 29.83 in 10.0 mi Calm Calm - N/A   Clear
9:16 AM 34.9 °F - 33.3 °F 94% 29.83 in 10.0 mi Calm Calm - N/A   Clear
9:38 AM 38.1 °F - 35.2 °F 89% 29.84 in 10.0 mi Calm Calm - N/A   Clear
10:15 AM 43.3 °F - 36.3 °F 76% 29.85 in 10.0 mi Calm Calm - N/A   Clear
10:16 AM 43.5 °F - 36.3 °F 76% 29.85 in 10.0 mi Calm Calm - N/A   Clear
10:35 AM 46.4 °F - 37.9 °F 72% 29.85 in 10.0 mi Calm Calm - N/A   Clear
10:36 AM 46.4 °F - 37.8 °F 72% 29.85 in 10.0 mi Calm Calm - N/A   Clear
10:55 AM 49.3 °F - 38.8 °F 67% 29.85 in 10.0 mi Calm Calm - N/A   Clear
10:59 AM 50.0 °F - 38.7 °F 65% 29.85 in 10.0 mi Calm Calm - N/A   Clear
11:17 AM 52.0 °F - 39.6 °F 63% 29.86 in 10.0 mi South 4.6 mph - N/A   Clear
11:35 AM 53.2 °F - 39.2 °F 59% 29.85 in 10.0 mi Calm Calm - N/A   Clear
11:55 AM 54.3 °F - 38.5 °F 55% 29.85 in 10.0 mi Calm Calm - N/A   Clear
11:56 AM 54.3 °F - 38.5 °F 55% 29.85 in 10.0 mi Calm Calm - N/A   Clear
12:15 PM 55.4 °F - 38.1 °F 52% 29.86 in 10.0 mi SE 3.5 mph - N/A   Clear
12:16 PM 55.4 °F - 38.1 °F 52% 29.86 in 10.0 mi SSE 4.6 mph - N/A   Clear
12:38 PM 56.8 °F - 38.7 °F 51% 29.86 in 10.0 mi South 3.5 mph - N/A   Clear
12:57 PM 56.8 °F - 36.7 °F 47% 29.86 in 10.0 mi SW 4.6 mph - N/A   Clear
1:16 PM 58.3 °F - 36.7 °F 45% 29.86 in 10.0 mi SW 8.1 mph - N/A   Clear
1:35 PM 58.8 °F - 35.8 °F 42% 29.86 in 10.0 mi SSW 6.9 mph - N/A   Clear
1:36 PM 58.8 °F - 35.8 °F 42% 29.86 in 10.0 mi South 5.8 mph - N/A   Clear
1:55 PM 57.9 °F - 35.4 °F 43% 29.86 in 10.0 mi SW 4.6 mph - N/A   Clear
1:59 PM 58.3 °F - 36.1 °F 44% 29.86 in 10.0 mi South 4.6 mph - N/A   Clear
2:16 PM 58.3 °F - 35.4 °F 42% 29.86 in 10.0 mi WSW 6.9 mph - N/A   Clear
2:35 PM 58.3 °F - 35.4 °F 42% 29.86 in 10.0 mi SW 5.8 mph - N/A   Clear
2:36 PM 58.3 °F - 35.4 °F 42% 29.86 in 10.0 mi SW 4.6 mph - N/A   Clear
2:55 PM 58.1 °F - 36.0 °F 44% 29.86 in 10.0 mi SSW 4.6 mph - N/A   Clear
2:56 PM 58.1 °F - 36.1 °F 44% 29.86 in 10.0 mi SSW 4.6 mph - N/A   Clear
3:15 PM 58.1 °F - 36.0 °F 44% 29.85 in 10.0 mi Calm Calm - N/A   Clear
3:19 PM 58.3 °F - 37.0 °F 45% 29.85 in 10.0 mi SW 3.5 mph - N/A   Clear
3:38 PM 58.3 °F - 37.4 °F 46% 29.86 in 10.0 mi SW 3.5 mph - N/A   Clear
3:55 PM 58.3 °F - 36.3 °F 44% 29.86 in 10.0 mi SSW 4.6 mph - N/A   Clear
4:15 PM 57.4 °F - 37.4 °F 47% 29.86 in 10.0 mi SW 3.5 mph - N/A   Clear
4:16 PM 57.4 °F - 37.4 °F 47% 29.86 in 10.0 mi SW 3.5 mph - N/A   Clear
4:35 PM 56.5 °F - 38.5 °F 51% 29.87 in 10.0 mi Calm Calm - N/A   Clear
4:36 PM 56.5 °F - 38.3 °F 51% 29.87 in 10.0 mi Calm Calm - N/A   Clear
4:58 PM 56.5 °F - 37.8 °F 50% 29.87 in 10.0 mi South 3.5 mph - N/A   Clear
5:17 PM 55.8 °F - 37.2 °F 50% 29.87 in 10.0 mi Calm Calm - N/A   Clear
5:36 PM 53.6 °F - 39.6 °F 59% 29.87 in 10.0 mi Calm Calm - N/A   Clear
5:55 PM 52.0 °F - 38.7 °F 60% 29.87 in 10.0 mi Calm Calm - N/A   Clear
5:56 PM 51.8 °F - 38.7 °F 61% 29.87 in 10.0 mi Calm Calm - N/A   Clear
6:15 PM 49.8 °F - 39.6 °F 68% 29.87 in 10.0 mi Calm Calm - N/A   Clear
6:37 PM 47.3 °F - 39.6 °F 74% 29.88 in 10.0 mi Calm Calm - N/A   Clear
6:55 PM 46.4 °F - 39.4 °F 77% 29.87 in 10.0 mi Calm Calm - N/A   Clear
7:15 PM 46.6 °F - 38.8 °F 74% 29.87 in 10.0 mi NE 3.5 mph - N/A   Clear
7:16 PM 46.4 °F 45.2 °F 39.0 °F 75% 29.87 in 10.0 mi NE 3.5 mph - N/A   Clear
7:35 PM 46.4 °F - 39.2 °F 76% 29.87 in 10.0 mi Calm Calm - N/A   Clear
7:36 PM 45.9 °F - 39.2 °F 78% 29.87 in 10.0 mi Calm Calm - N/A   Clear
7:59 PM 44.1 °F - 39.2 °F 83% 29.88 in 10.0 mi Calm Calm - N/A   Clear
8:16 PM 45.5 °F - 39.2 °F 79% 29.88 in 10.0 mi Calm Calm - N/A   Clear
8:36 PM 44.2 °F 42.7 °F 39.2 °F 82% 29.88 in 10.0 mi NNE 3.5 mph - N/A   Clear
8:55 PM 45.3 °F - 38.7 °F 78% 29.88 in 10.0 mi Calm Calm - N/A   Clear
9:15 PM 45.7 °F - 38.7 °F 76% 29.88 in 10.0 mi Calm Calm - N/A   Scattered Clouds
9:19 PM 45.0 °F - 38.5 °F 78% 29.89 in 10.0 mi Calm Calm - N/A   Scattered Clouds
9:38 PM 44.8 °F 42.4 °F 39.0 °F 80% 29.88 in 10.0 mi NE 4.6 mph - N/A   Scattered Clouds
9:56 PM 45.7 °F 44.4 °F 37.6 °F 73% 29.89 in 10.0 mi NE 3.5 mph - N/A   Clear
10:15 PM 45.9 °F 44.6 °F 37.4 °F 72% 29.89 in 10.0 mi NE 3.5 mph - N/A   Mostly Cloudy
10:16 PM 45.9 °F 44.6 °F 37.4 °F 72% 29.89 in 10.0 mi ENE 3.5 mph - N/A   Mostly Cloudy
10:35 PM 45.7 °F - 37.4 °F 73% 29.89 in 10.0 mi Calm Calm - N/A   Overcast
10:36 PM 45.9 °F - 37.4 °F 72% 29.89 in 10.0 mi Calm Calm - N/A   Overcast
10:58 PM 45.9 °F 44.6 °F 37.2 °F 72% 29.89 in 10.0 mi NE 3.5 mph - N/A   Overcast
11:16 PM 45.3 °F - 37.6 °F 74% 29.90 in 10.0 mi Calm Calm - N/A   Overcast
11:35 PM 45.5 °F 44.2 °F 37.9 °F 75% 29.90 in 10.0 mi NNE 3.5 mph - N/A   Overcast
11:36 PM 45.5 °F 44.2 °F 37.9 °F 75% 29.90 in 10.0 mi NNE 3.5 mph - N/A   Overcast
11:55 PM 45.7 °F 43.4 °F 37.9 °F 74% 29.89 in 10.0 mi NE 4.6 mph - N/A   Overcast
11:56 PM 45.5 °F 43.2 °F 37.9 °F 75% 29.89 in 10.0 mi NE 4.6 mph - N/A   Overcast